Location: Boćki
(52.6512°N, 23.0459°E)
Time: 06:49:27
(UTC+02:00)

ISS - Pass Details

Date: 24 March 2019
Orbit: 408 x 410 km, 51.6° (Epoch: 20 April)

Event Time Altitude Azimuth Distance (km) Brightness Sun altitude
Rises 19:29:07 0° 236° (WSW) 2,332 0.5 -15.7°
Reaches altitude 10° 19:31:15 10° 229° (SW) 1,472 -0.7 -16.0°
Maximum altitude 19:34:23 41° 158° (SSE) 611 -3.3 -16.4°
Enters shadow 19:34:33 40° 149° (SSE) 615 -3.4 -16.4°
